Skip Navigation Links weather.gov 
NOAA logo-Select to go to the NOAA homepage NDBC Title GraphicClick to go to NDBC home page   Select to go to the NWS homepage
Home About Us Contact Us
 
 
    
    Station List

 Data Access
    Mobile Access
    Classic Maps
         Recent
         DART®
    Obs Search
    Ship Obs Report
    BuoyCAMs
    TAO
    DODS
    OceanSITES
    HF Radar
    OSMC
    Dial-A-Buoy
    RSS Feeds Image indicating link to RSS feed access page
    Web Widget
    Email Access
    Web Data Guide
    Maintenance Schedule
    Station Status Report

 Program Info
    TAO
    DART®
    IOOS®

 Publications
    NDBC PEA
    NDBC FONSI
    NDBC DQC Handbook

 FAQ
 Visitor Information
 
USA.gov is the U.S. government's official web portal to all federal, state and local government web resources and services.

Station RPLV2 - 8632837 - Rappahannock Light, VA Image indicating link to RSS feed of recent meteorological observations for station RPLV2

Owned and maintained by NOAA's National Ocean Service
C-MAN Station
37.538 N 76.014 W (37°32'19" N 76°0'51" W)

Site elevation: 0 m above mean sea level
Anemometer height: 16.9 m above site elevation
Barometer elevation: 4.9 m above mean sea level

Latest NWS Marine Forecast

Search And Rescue (SAR) Data

Meteorological Observations from Nearby Stations and Ships Image indicating link to RSS feed of recent meteorological observations near station RPLV2

Large icon indicates selected station.
yellow diamond Stations with recent data
red diamond Stations with no data in last 8 hours
     (24 hours for tsunami stations)


Conditions at RPLV2 as of
(3:30 am EST)
0830 GMT on 12/19/2018:
     

Click on the graph icon in the table below to see a time series plot of the last five days of that observation.

5-day plot - Wind Direction Wind Direction (WDIR): W ( 270 deg true )
5-day plot - Wind Speed Wind Speed (WSPD): 4 kts
5-day plot - Wind Gust Wind Gust (GST): 5 kts
5-day plot - Atmospheric Pressure Atmospheric Pressure (PRES): 30.23 in
5-day plot - Wind Speed at 10 Meters Wind Speed at 10 meters (WSPD10M): 4 kts
5-day plot - Wind Speed at 10 Meters Wind Speed at 20 meters (WSPD20M): 4 kts
5-day plot - Wind Speed, Wind Gust and Atmospheric Pressure Combined plot of Wind Speed, Gust, and Air Pressure
NOS Water Level Observation Network Water Level
Previous observations
5-day plot - Wind Direction 5-day plot - Wind Speed 5-day plot - Wind Gust 5-day plot - Wave Height 5-day plot - Dominant Wave Period 5-day plot - Average Period 5-day plot - Mean Wave Direction 5-day plot - Atmospheric Pressure 5-day plot - Pressure Tendency 5-day plot - Air Temperature 5-day plot - Water Temperature 5-day plot - Dew Point 5-day plot - Salinity 5-day plot - Visibility 5-day plot - Tide (above MLLW)
MM DD TIME
(EST)
WDIR WSPD
kts
GST
kts
WVHT
ft
DPD
sec
APD
sec
MWD PRES
in
PTDY
in
ATMP
°F
WTMP
°F
DEWP
°F
SAL
psu
VIS
nmi
TIDE
ft
1219 3:24 am W 5 5----30.23-------
1219 3:18 amWSW 5 6------------
1219 3:12 amWSW 5 6----30.24-------
1219 3:06 amWSW 5 6----30.24-------
1219 3:00 amWSW 5 6----30.24+0.03------
1219 2:54 amWSW 5 6----30.24-------
1219 2:48 amWSW 6 7----30.24-------
1219 2:42 am SW 7 7----30.24-------
1219 2:36 am SW 6 7----30.24-------
1219 2:30 am SW 6 7----30.24-------
1219 2:24 am SW 6 7----30.24-------
1219 2:18 am SW 5 7----30.24-------
1219 2:12 am SW 6 6----30.24-------
1219 2:06 am SW 5 6----30.23-------
1219 2:00 amSSW 5 5----30.23+0.01------
1219 1:54 amSSW 4 4----30.23-------
1219 1:48 amSSW 3 4----30.22-------
1219 1:42 am S 2 5----30.23-------
1219 1:36 amSSW 4 5----30.22-------
1219 1:30 am S 1 3----30.22-------
1219 1:24 am S 3 4----30.22-------
1219 1:18 am S 3 4----30.21-------
1219 1:12 am E 2 2----30.21-------
1219 1:06 amESE 1 3----30.21-------
1219 1:00 am SE 3 3----30.21-0.02------
121912:54 amESE 2 2----30.20-------
121912:48 amESE 2 3------------
121912:42 am SE 3 3------------
121912:36 am SE 3 4------------
121912:30 amESE 3 3------------
121912:24 amESE 3 4----30.21-------
121912:18 amESE 3 4----30.21-------
121912:12 amESE 3 4----30.21-------
121912:06 am SE 3 4----30.21-------
121912:00 am SE 3 4----30.21-0.01------
121811:54 pmESE 4 5----30.21-------
121811:48 pmESE 5 5----30.21-------
121811:42 pmESE 4 4----30.22-------
121811:36 pmESE 4 4----30.22-------
121811:30 pmESE 4 5----30.22-------
121811:24 pm E 5 5----30.22-------
121811:18 pmNNE 5 6----30.22-------
121811:12 pmNNE 5 6----30.22-------
121811:06 pmNNE 5 5----30.22-------
121811:00 pmNNE 5 6----30.22+0.00------
121810:54 pm N 6 7----30.22-------
121810:48 pmNNE 6 7----30.22-------
121810:42 pm N 7 9----30.22-------
121810:36 pm N 8 8----30.22-------
121810:30 pm N 7 8----30.22-------
121810:24 pm N 8 8----30.22-------
121810:18 pm N 7 9----30.22-------
121810:12 pm N 8 9----30.23-------
121810:06 pm N 7 8----30.23-------
121810:00 pmNNW 7 8----30.23+0.02------
1218 9:54 pm N 8 9----30.23-------
1218 9:48 pm N 8 9----30.22-------
1218 9:42 pm N 8 10----30.22-------
1218 9:36 pm N 10 10----30.22-------
1218 9:30 pmNNW 9 11----30.22-------
1218 9:24 pmNNW 10 11----30.22-------
1218 9:18 pmNNW 9 10----30.23-------
1218 9:12 pmNNW 8 9----30.23-------
1218 9:06 pmNNW 6 8----30.22-------
1218 9:00 pmNNW 7 9----30.22+0.03------
1218 8:54 pmNNW 8 9----30.22-------
1218 8:48 pmNNW 8 10----30.22-------
1218 8:42 pmNNW 9 10----30.22-------
1218 8:36 pmNNW 7 10----30.22-------
1218 8:30 pmNNW 9 10----30.22-------
1218 8:24 pmNNW 10 12----30.21-------
1218 8:18 pmNNW 10 12----30.21-------
1218 8:12 pmNNW 11 12----30.22-------
1218 8:06 pm NW 10 11----30.22-------
1218 8:00 pmNNW 11 11----30.22+0.02------
1218 7:54 pmNNW 10 12----30.22-------
1218 7:48 pmNNW 12 14----30.21-------
1218 7:42 pmNNW 12 13----30.21-------
1218 7:36 pmNNW 12 13----30.21-------
1218 7:30 pm NW 10 13----30.21-------
1218 7:24 pm NW 11 13----30.21-------
1218 7:18 pm NW 12 14----30.20-------
1218 7:12 pm NW 12 13----30.20-------
1218 7:06 pm NW 12 14----30.20-------
1218 7:00 pm NW 13 14----30.20+0.04------
1218 6:54 pm NW 13 14----30.20-------
1218 6:48 pm NW 13 14----30.20-------
1218 6:42 pm NW 13 14----30.20-------
1218 6:36 pm NW 12 14----30.20-------
1218 6:30 pm NW 13 14----30.20-------
1218 6:24 pm NW 11 12----30.20-------
1218 6:18 pm NW 10 12------------
1218 6:12 pm NW 11 12----30.19-------
1218 6:06 pm NW 12 13----30.20-------
1218 6:00 pm NW 11 12----30.19+0.04------
1218 5:54 pm NW 11 12----30.19-------
1218 5:48 pm NW 9 11------------
1218 5:42 pm NW 10 11------------
1218 5:36 pm NW 11 12----30.20-------
1218 5:30 pm NW 10 12----30.20-------
1218 5:24 pm NW 11 12----30.20-------
1218 5:18 pm NW 11 12------------
1218 5:12 pm NW 10 12----30.19-------
1218 5:06 pm NW 10 12----30.19-------
1218 5:00 pm NW 11 12----30.19+0.05------
1218 4:54 pm NW 11 12----30.19-------
1218 4:48 pm NW 12 13----30.19-------
1218 4:42 pm NW 12 13----30.19-------
1218 4:36 pm NW 12 12----30.18-------
1218 4:30 pmNNW 11 12----30.18-------
1218 4:24 pm NW 12 12----30.18-------
1218 4:18 pm NW 11 13----30.18-------
1218 4:12 pm NW 11 12----30.17-------
1218 4:06 pm NW 11 12----30.17-------
1218 4:00 pmNNW 11 13----30.16+0.00------
1218 3:54 pm NW 12 13----30.16-------
1218 3:48 pmNNW 10 12----30.16-------
1218 3:42 pmNNW 10 11----30.16-------
1218 3:36 pmNNW 9 11----30.16-------
1218 3:30 pmNNW 10 11----30.16-------
1218 3:24 pmNNW 10 11----30.16-------
1218 3:18 pmNNW 10 12----30.16-------
1218 3:12 pmNNW 11 12----30.16-------
1218 3:06 pmNNW 10 12----30.16-------
1218 3:00 pmNNW 11 12----30.15-0.01------
1218 2:54 pmNNW 10 12----30.15-------
1218 2:48 pmNNW 11 12----30.15-------
1218 2:42 pmNNW 11 12----30.15-------
1218 2:36 pmNNW 11 13----30.15-------
1218 2:30 pmNNW 12 13----30.15-------
1218 2:24 pmNNW 9 11----30.15-------
1218 2:18 pmNNW 11 12----30.15-------
1218 2:12 pmNNW 12 13----30.15-------
1218 2:06 pm NW 13 14----30.15-------
1218 2:00 pmNNW 12 14----30.15-0.03------
1218 1:54 pm NW 12 14----30.15-------
1218 1:48 pmNNW 12 14----30.15-------
1218 1:42 pmNNW 12 14----30.15-------
1218 1:36 pm NW 13 15----30.15-------
1218 1:30 pm NW 13 15----30.15-------
1218 1:24 pmNNW 12 15----30.15-------
1218 1:18 pm NW 12 16----30.15-------
1218 1:12 pm NW 15 17----30.16-------
1218 1:06 pmNNW 14 18----30.16-------
1218 1:00 pm NW 14 16----30.16+0.00------
121812:54 pmNNW 15 17----30.16-------
121812:48 pmNNW 14 17----30.16-------
121812:42 pm NW 17 19----30.16-------
121812:36 pm NW 16 17----30.16-------
121812:30 pm NW 17 19----30.16-------
121812:24 pm NW 15 18----30.16-------
121812:18 pm NW 15 18----30.16-------
121812:12 pm NW 16 18----30.16-------
121812:06 pmNNW 15 18----30.16-------
121812:00 pmNNW 17 19----30.16+0.00------
121811:54 amNNW 16 19----30.16-------
121811:48 amNNW 17 19----30.16-------
121811:42 amNNW 17 21----30.16-------
121811:36 amNNW 19 20----30.17-------
121811:30 amNNW 18 20----30.17-------
121811:24 amNNW 18 21----30.17-------
121811:18 amNNW 19 22----30.17-------
121811:12 amNNW 20 23----30.17-------
121811:06 amNNW 19 22----30.17-------
121811:00 amNNW 20 23----30.17+0.04------
121810:54 amNNW 19 23----30.17-------
121810:48 amNNW 21 26----30.17-------
121810:42 amNNW 21 26----30.17-------
121810:36 amNNW 20 25----30.17-------
121810:30 am NW 23 27----30.17-------
121810:24 amNNW 23 25----30.17-------
121810:12 amNNW 24 25----30.17-------
121810:06 amNNW 22 24----30.17-------
121810:00 amNNW 22 24----30.16+0.07------
1218 9:54 am NW 20 24----30.17-------
1218 9:48 amNNW 21 24----30.17-------
1218 9:42 amNNW 20 23----30.16-------
1218 9:36 amNNW 22 25----30.17-------
1218 9:30 amNNW 22 24----30.17-------
1218 9:24 amNNW 20 24----30.16-------
1218 9:18 amNNW 21 23----30.16-------
1218 9:12 amNNW 22 25----30.16-------
1218 9:06 amNNW 20 27----30.16-------
1218 9:00 amNNW 23 26----30.16+0.09------
1218 8:54 amNNW 23 25----30.16-------
1218 8:48 amNNW 25 27----30.15-------
1218 8:42 amNNW 22 26----30.15-------
1218 8:36 amNNW 23 29----30.15-------
1218 8:30 amNNW 25 29----30.14-------
1218 8:24 amNNW 24 29----30.14-------
1218 8:18 amNNW 24 27----30.14-------
1218 8:12 amNNW 26 28----30.14-------
1218 8:06 amNNW 25 28----30.14-------
1218 8:00 amNNW 25 29----30.13+0.10------
1218 7:54 amNNW 24 28----30.12-------
1218 7:48 amNNW 25 27----30.12-------
1218 7:42 amNNW 25 28----30.11-------
1218 7:36 amNNW 27 29----30.11-------
1218 7:30 amNNW 24 29----30.11-------
1218 7:24 amNNW 25 29----30.10-------
1218 7:18 amNNW 25 28----30.11-------
1218 7:12 amNNW 22 25----30.10-------
1218 7:06 am NW 22 25----30.10-------
1218 7:00 am NW 24 26----30.09+0.07------
1218 6:54 am NW 24 26----30.09-------
1218 6:48 am NW 25 28------------
1218 6:42 am NW 24 26----30.09-------
1218 6:36 am NW 24 27----30.08-------
1218 6:30 am NW 25 28----30.08-------
1218 6:24 am NW 27 29----30.08-------
1218 6:18 am NW 26 30----30.08-------
1218 6:12 am NW 26 31----30.07-------
1218 6:06 am NW 26 29----30.07-------
1218 6:00 am NW 27 30----30.07+0.06------
1218 5:54 am NW 28 32----30.06-------
1218 5:48 amNNW 28 32----30.06-------
1218 5:42 amNNW 28 33----30.06-------
1218 5:36 amNNW 30 34----30.05-------
1218 5:30 amNNW 29 34----30.04-------
1218 5:24 amNNW 31 34----30.04-------
1218 5:18 amNNW 27 33----30.04-------
1218 5:12 amNNW 29 34----30.03-------
1218 5:06 amNNW 27 33----30.03-------
1218 5:00 amNNW 30 33----30.03+0.04------
1218 4:54 amNNW 29 34----30.03-------
1218 4:48 amNNW 31 34----30.02-------
1218 4:42 amNNW 30 34----30.02-------
1218 4:36 amNNW 29 34----30.02-------
1218 4:30 amNNW 30 34----30.02-------
1218 4:24 amNNW 28 32----30.02-------
1218 4:18 amNNW 25 30----30.02-------
1218 4:12 amNNW 28 31----30.02-------
1218 4:06 amNNW 28 31----30.02-------
1218 4:00 amNNW 25 30----30.02+0.04------
1218 3:54 amNNW 27 34----30.02-------

Description of Measurements

Links which are specific to this station are listed below:

Real Time Data in tabular form for the last forty-five days.

Historical Data & Climatic Summaries for quality controlled data for the current month, previous months, and previous years.